CYGFM08
Last updated on Sun Jun 21 2026 00:02:47 GMT+0000 (Coordinated Universal Time)
1 41888U 16078E 26171.45513382 .00022398 00000+0 26567-3 0 9991
2 41888 34.9419 219.4708 0008738 207.6434 152.3827 15.60162461529482
Next 0 passes for location: London (51.5072 / 0.1276)
No passes found over London.